Regional Weather Roundup
Issued by NWS

Home | Current Version | Previous Version | Graphics & Text | Print | Product List | Glossary On
Versions: 1 2 3 4 5 6 7 8 9 10 11 12 13 14 15 16 17 18 19 20 21 22 23 24 25 26 27 28 29 30 31 32 33 34 35 36 37 38 39 40 41 42 43 44 45 46 47 48 49 50
000
ASUS45 KCYS 022010
RWRWY

WYOMING REGIONAL WEATHER ROUNDUP
NATIONAL WEATHER SERVICE CHEYENNE WY
200 PM MDT WED SEP 02 2015

NOTE:  "FAIR" INDICATES FEW OR NO CLOUDS BELOW 12,000 FEET
WITH NO SIGNIFICANT WEATHER AND/OR OBSTRUCTIONS TO VISIBILITY.

WYZ001-022100-
YELLOWSTONE NATIONAL PARK

CITY           SKY/WX    TMP DP  RH WIND       PRES   REMARKS
LK YELLOWSTONE   N/A     72  32  23 VRB3G18   30.13F
W YELLOWSTONE  NOT AVBL

$$
WYZ002>013-054>058-071-098>099-022100-
NORTHERN WYOMING

CITY           SKY/WX    TMP DP  RH WIND       PRES   REMARKS
JACKSON        FAIR      81  30  16 S21G31    30.04F
CODY           FAIR      90  30  12 SW14G22   29.87F
GREYBULL       FAIR      96  27   8 SW10G21   29.78F HX  90
WORLAND        FAIR      94  34  12 SW20      29.84F
SHERIDAN       FAIR      95  30  10 VRB3      29.80F
BUFFALO        FAIR      93  30  10 SW15G22   29.91F
GILLETTE       FAIR      92  35  13 SW14      29.87F
HULETT         FAIR      93  34  12 S3        29.89F
NEWCASTLE      FAIR      90  34  13 N5        29.90F

$$
WYZ014>020-022>026-101>103-022100-
CENTRAL WYOMING

CITY           SKY/WX    TMP DP  RH WIND       PRES   REMARKS
BIG PINEY      FAIR      78  31  17 W12G21    30.12F
PINEDALE       FAIR      79  27  14 S14G23    30.13S
DUBOIS         FAIR      77  28  16 NW14G23   30.08F
LANDER         FAIR      87  31  13 SW23G29   29.96F
RIVERTON       FAIR      88  30  12 SW21G32   29.97F
CASPER         FAIR      86  32  14 SW15G25   30.00F
DOUGLAS        FAIR      92  30  11 W14       29.98F

$$
WYZ021-027>030-104>119-022100-
SOUTHERN WYOMING

CITY           SKY/WX    TMP DP  RH WIND       PRES   REMARKS
EVANSTON       FAIR      78  33  19 SW25G32   30.16F
KEMMERER       FAIR      75  30  19 SW25G32   30.17S
FORT BRIDGER   MOCLDY    82  32  16 W23G35    30.17F
ROCK SPRINGS   FAIR      78  34  20 SW20      30.13F
DIXON          FAIR      83  38  20 SW16G24   30.18F
RAWLINS        FAIR      82  36  19 SW24G30   30.16F
SARATOGA       FAIR      79  36  21 SW9G20    30.19F
LARAMIE        PTSUNNY   77  36  22 VRB5      30.19F
CHEYENNE       FAIR      85  36  17 NE5       30.10F
TORRINGTON     FAIR      94  38  14 N6        29.93F
PINE BLUFFS    FAIR      90  34  13 NW14      30.03F

$$


USA.gov is the U.S. government's official web portal to all federal, state and local government web resources and services.